GW3170 Weather Reports


Display with metric or nautical units.
time (UTC)temp
F
wind
direction
speed
MPH
gust
MPH
rain 1hr
in
rain 24hr
in
rain mn
in
humidity
%
barometer
mb
20260906234054 65 0 0.0 0.0 0.00 0.00 0.00 73 1018.5
20260906233555 66 0 0.0 0.0 0.00 0.00 0.00 72 1018.5
20260906233118 67 0 0.0 0.0 0.00 0.00 0.00 71 1018.5
20260906232559 68 0 0.0 0.0 0.00 0.00 0.00 70 1018.6
20260906232054 69 0 0.0 0.0 0.00 0.00 0.00 68 1018.5
20260906231603 70 0 0.0 0.0 0.00 0.00 0.00 65 1018.4
20260906231057 71 0 0.0 0.0 0.00 0.00 0.00 63 1018.4
20260906230557 73 0 0.0 0.0 0.00 0.00 0.00 62 1018.4
20260906230107 73 0 0.0 0.0 0.00 0.00 0.00 64 1018.4
20260906225556 73 0 0.0 0.0 0.00 0.00 0.00 63 1018.4
20260906225059 73 0 0.0 0.0 0.00 0.00 0.00 63 1018.4
20260906224612 73 0 0.0 0.0 0.00 0.00 0.00 62 1018.3
20260906224059 73 0 0.0 0.0 0.00 0.00 0.00 63 1018.3
20260906223557 72 0 0.0 0.0 0.00 0.00 0.00 63 1018.2
20260906223103 72 0 0.0 1.0 0.00 0.00 0.00 63 1018.3
20260906222553 72 0 0.0 4.0 0.00 0.00 0.00 63 1018.3
20260906222100 72 0 0.0 4.0 0.00 0.00 0.00 62 1018.3
20260906221610 73 0 0.0 4.0 0.00 0.00 0.00 63 1018.2
20260906221056 73 0 0.0 4.0 0.00 0.00 0.00 63 1018.2
20260906220554 73 350 0.0 2.0 0.00 0.00 0.00 63 1018.2
20260906220138 72 0 0.0 2.0 0.00 0.00 0.00 63 1018.1
20260906215557 73 0 0.0 2.0 0.00 0.00 0.00 62 1018.1
20260906215100 73 0 0.0 4.0 0.00 0.00 0.00 62 1018.1
20260906214559 73 0 0.0 4.0 0.00 0.00 0.00 62 1018.0
20260906214056 74 0 0.0 4.0 0.00 0.00 0.00 61 1018.1
20260906213555 74 47 0.0 2.0 0.00 0.00 0.00 62 1018.1
20260906213118 74 0 0.0 2.0 0.00 0.00 0.00 61 1018.1
20260906212556 73 0 0.0 2.0 0.00 0.00 0.00 62 1018.2
20260906212054 73 0 0.0 2.0 0.00 0.00 0.00 62 1018.1
20260906211610 73 333 0.0 2.0 0.00 0.00 0.00 61 1018.1
20260906211057 74 333 0.0 5.0 0.00 0.00 0.00 61 1018.2
20260906210557 74 0 0.0 5.0 0.00 0.00 0.00 60 1018.2
20260906210112 73 0 0.0 5.0 0.00 0.00 0.00 63 1018.1
20260906205558 73 0 1.0 4.0 0.00 0.00 0.00 62 1018.1
20260906205054 73 0 0.0 2.0 0.00 0.00 0.00 64 1018.1
20260906204604 72 0 0.0 2.0 0.00 0.00 0.00 63 1018.2
20260906204054 73 0 0.0 4.0 0.00 0.00 0.00 61 1018.1
20260906203555 74 0 0.0 4.0 0.00 0.00 0.00 60 1018.0
20260906203102 74 0 0.0 3.0 0.00 0.00 0.00 60 1018.0
20260906202554 74 0 1.0 6.0 0.00 0.00 0.00 61 1017.9
20260906202055 73 327 0.0 6.0 0.00 0.00 0.00 61 1018.0
20260906201607 73 284 0.0 2.0 0.00 0.00 0.00 62 1018.0
20260906201058 74 0 0.0 2.0 0.00 0.00 0.00 59 1018.0
20260906200601 76 0 0.0 2.0 0.00 0.00 0.00 55 1018.0
20260906195557 77 0 0.0 2.0 0.00 0.00 0.00 55 1017.7
20260906195100 77 0 0.0 2.0 0.00 0.00 0.00 55 1017.8
20260906194629 77 0 0.0 1.0 0.00 0.00 0.00 57 1017.7
20260906194056 77 0 0.0 1.0 0.00 0.00 0.00 56 1017.8
20260906193556 77 0 0.0 4.0 0.00 0.00 0.00 55 1017.8
20260906193107 77 0 0.0 4.0 0.00 0.00 0.00 56 1017.7
20260906192557 77 63 0.0 2.0 0.00 0.00 0.00 57 1017.7
20260906192055 77 0 0.0 4.0 0.00 0.00 0.00 57 1017.8
20260906191608 76 245 0.0 4.0 0.00 0.00 0.00 56 1017.8
20260906191057 77 0 0.0 4.0 0.00 0.00 0.00 56 1017.8
20260906190600 77 0 0.0 4.0 0.00 0.00 0.00 58 1017.7
20260906185556 77 0 0.0 4.0 0.00 0.00 0.00 60 1017.7
20260906185058 77 288 0.0 4.0 0.00 0.00 0.00 57 1017.9
20260906184629 77 356 0.0 4.0 0.00 0.00 0.00 57 1017.9
20260906184054 76 198 0.0 4.0 0.00 0.00 0.00 58 1017.9
20260906183555 76 0 0.0 3.0 0.00 0.00 0.00 57 1017.8
20260906183120 76 0 0.0 1.0 0.00 0.00 0.00 59 1017.9
20260906182554 76 0 0.0 3.0 0.00 0.00 0.00 59 1017.9
20260906182101 76 0 0.0 3.0 0.00 0.00 0.00 58 1017.9
20260906181603 76 342 0.0 3.0 0.00 0.00 0.00 57 1017.9
20260906181054 76 172 0.0 5.0 0.00 0.00 0.00 59 1017.8
20260906180558 76 0 0.0 5.0 0.00 0.00 0.00 57 1017.9
20260906180107 76 282 0.0 3.0 0.00 0.00 0.00 58 1018.0
20260906175558 76 0 0.0 2.0 0.00 0.00 0.00 59 1018.0
20260906175054 76 0 0.0 2.0 0.00 0.00 0.00 61 1018.1
20260906174607 75 0 0.0 3.0 0.00 0.00 0.00 60 1018.1
20260906174058 75 0 0.0 3.0 0.00 0.00 0.00 58 1018.1
20260906173556 75 0 0.0 4.0 0.00 0.00 0.00 58 1018.0
20260906173104 75 0 0.0 4.0 0.00 0.00 0.00 59 1018.0
20260906172554 75 269 0.0 4.0 0.00 0.00 0.00 59 1018.0
20260906172057 75 0 0.0 2.0 0.00 0.00 0.00 59 1018.0
20260906171610 75 23 0.0 4.0 0.00 0.00 0.00 60 1018.0
20260906171053 75 0 0.0 4.0 0.00 0.00 0.00 60 1018.1
20260906170556 76 0 0.0 4.0 0.00 0.00 0.00 59 1018.0
20260906170108 76 0 0.0 3.0 0.00 0.00 0.00 61 1018.0
20260906165557 75 0 0.0 3.0 0.00 0.00 0.00 61 1018.1
20260906165055 75 290 0.0 3.0 0.00 0.00 0.00 61 1018.1
20260906164604 75 0 0.0 2.0 0.00 0.00 0.00 60 1018.1
20260906164055 74 0 0.0 5.0 0.00 0.00 0.00 61 1018.1
20260906163554 74 0 0.0 5.0 0.00 0.00 0.00 62 1018.2
20260906163103 74 53 0.0 5.0 0.00 0.00 0.00 61 1018.3
20260906162555 74 0 0.0 1.0 0.00 0.00 0.00 60 1018.3
20260906162055 74 0 0.0 3.0 0.00 0.00 0.00 58 1018.3
20260906161607 74 0 0.0 3.0 0.00 0.00 0.00 60 1018.3
20260906161054 73 176 0.0 6.0 0.00 0.00 0.00 60 1018.4
20260906160556 73 0 1.0 6.0 0.00 0.00 0.00 60 1018.4
20260906160110 73 43 0.0 6.0 0.00 0.00 0.00 61 1018.4
20260906155554 73 0 0.0 6.0 0.00 0.00 0.00 59 1018.4
20260906155054 73 0 0.0 3.0 0.00 0.00 0.00 60 1018.4
20260906154605 73 0 0.0 6.0 0.00 0.00 0.00 61 1018.3
20260906154055 73 0 0.0 6.0 0.00 0.00 0.00 63 1018.3
20260906153559 72 0 0.0 2.0 0.00 0.00 0.00 63 1018.5
20260906153102 72 0 0.0 2.0 0.00 0.00 0.00 64 1018.5
20260906152601 72 0 0.0 1.0 0.00 0.00 0.00 65 1018.5
20260906152055 71 0 0.0 2.0 0.00 0.00 0.00 65 1018.5
20260906151605 72 0 0.0 2.0 0.00 0.00 0.00 65 1018.5
20260906151055 71 0 0.0 2.0 0.00 0.00 0.00 67 1018.5
20260906150559 72 0 0.0 1.0 0.00 0.00 0.00 66 1018.5
20260906150106 72 0 0.0 2.0 0.00 0.00 0.00 67 1018.5
20260906145554 71 0 0.0 7.0 0.00 0.00 0.00 70 1018.6
20260906145057 71 0 1.0 7.0 0.00 0.00 0.00 69 1018.5
20260906144623 71 119 0.0 3.0 0.00 0.00 0.00 69 1018.5
20260906144055 71 0 0.0 3.0 0.00 0.00 0.00 70 1018.5
20260906143555 71 90 0.0 3.0 0.00 0.00 0.00 69 1018.3
20260906143107 71 0 0.0 3.0 0.00 0.00 0.00 69 1018.4
20260906142554 70 0 0.0 0.0 0.00 0.00 0.00 69 1018.3
20260906142058 70 0 0.0 0.0 0.00 0.00 0.00 72 1018.3
20260906141628 70 0 0.0 2.0 0.00 0.00 0.00 72 1018.2
20260906141057 70 0 0.0 2.0 0.00 0.00 0.00 73 1018.2
20260906140559 69 0 0.0 2.0 0.00 0.00 0.00 75 1018.1
20260906140110 69 0 0.0 2.0 0.00 0.00 0.00 77 1018.2
20260906135556 68 0 0.0 4.0 0.00 0.00 0.00 79 1018.2
20260906135056 68 0 0.0 4.0 0.00 0.00 0.00 80 1018.2
20260906134608 68 0 0.0 2.0 0.00 0.00 0.00 81 1018.2
20260906134057 67 1 0.0 1.0 0.00 0.00 0.00 84 1018.2
20260906133553 67 0 0.0 1.0 0.00 0.00 0.00 85 1018.1
20260906133104 66 0 0.0 1.0 0.00 0.00 0.00 86 1018.1
20260906132557 66 0 0.0 1.0 0.00 0.00 0.00 88 1018.0
20260906132055 65 0 0.0 0.0 0.00 0.00 0.00 90 1018.0
20260906131607 64 0 0.0 4.0 0.00 0.00 0.00 91 1018.1
20260906131054 64 0 0.0 4.0 0.00 0.00 0.00 92 1018.2
20260906130559 63 0 0.0 4.0 0.00 0.00 0.00 92 1018.2
20260906130104 62 0 0.0 3.0 0.00 0.00 0.00 94 1018.1
20260906125557 62 0 0.0 1.0 0.00 0.00 0.00 95 1017.8
20260906125057 61 0 0.0 3.0 0.00 0.00 0.00 95 1017.9
20260906124603 61 0 0.0 4.0 0.00 0.00 0.00 95 1017.9
20260906124056 61 0 0.0 4.0 0.00 0.00 0.00 95 1017.9
20260906123554 60 284 0.0 4.0 0.00 0.00 0.00 95 1017.8
20260906123106 60 0 0.0 2.0 0.00 0.00 0.00 96 1017.7
20260906122554 60 0 0.0 2.0 0.00 0.00 0.00 96 1017.7
20260906122052 60 0 0.0 0.0 0.00 0.00 0.00 96 1017.6
20260906121604 60 0 0.0 0.0 0.00 0.00 0.00 96 1017.7
20260906121054 59 0 0.0 0.0 0.00 0.00 0.00 96 1017.7
20260906120554 59 0 0.0 0.0 0.00 0.00 0.00 96 1017.7
20260906120106 59 0 0.0 0.0 0.00 0.00 0.00 95 1017.7
20260906115554 59 0 0.0 1.0 0.00 0.00 0.00 95 1017.6
20260906115053 59 0 0.0 1.0 0.00 0.00 0.00 95 1017.6
20260906114605 59 0 0.0 1.0 0.00 0.00 0.00 95 1017.6
20260906114053 59 0 0.0 0.0 0.00 0.00 0.00 95 1017.6
20260906113553 59 0 0.0 1.0 0.00 0.00 0.00 95 1017.5
20260906113106 59 0 0.0 1.0 0.00 0.00 0.00 95 1017.4
20260906112553 59 0 0.0 1.0 0.00 0.00 0.00 95 1017.4
20260906112054 59 0 0.0 0.0 0.00 0.00 0.00 95 1017.3
20260906111602 59 0 0.0 1.0 0.00 0.00 0.00 95 1017.3
20260906111054 59 0 0.0 3.0 0.00 0.00 0.00 95 1017.3
20260906110554 59 0 0.0 3.0 0.00 0.00 0.00 95 1017.2
20260906110058 59 0 0.0 0.0 0.00 0.00 0.00 95 1017.2
20260906105558 59 0 0.0 0.0 0.00 0.00 0.00 95 1017.0
20260906105054 59 0 0.0 0.0 0.00 0.00 0.00 95 1017.0
20260906104621 59 0 0.0 0.0 0.00 0.00 0.00 95 1016.8
20260906104054 59 0 0.0 0.0 0.00 0.00 0.00 95 1016.7
20260906103555 59 0 0.0 0.0 0.00 0.00 0.00 95 1016.6
20260906103106 59 0 0.0 0.0 0.00 0.00 0.00 95 1016.5
20260906102554 59 0 0.0 0.0 0.00 0.00 0.00 95 1016.4
20260906102054 59 0 0.0 0.0 0.00 0.00 0.00 96 1016.2
20260906101603 59 0 0.0 0.0 0.00 0.00 0.00 96 1016.3
20260906101054 58 0 0.0 0.0 0.00 0.00 0.00 95 1016.2
20260906100554 58 0 0.0 0.0 0.00 0.00 0.00 95 1016.2
20260906100058 58 0 0.0 0.0 0.00 0.00 0.00 95 1016.2
20260906095553 58 0 0.0 0.0 0.00 0.00 0.00 95 1016.1
20260906095057 57 0 0.0 0.0 0.00 0.00 0.00 95 1016.1
20260906094640 57 0 0.0 0.0 0.00 0.00 0.00 95 1016.0
20260906094053 57 0 0.0 0.0 0.00 0.00 0.00 95 1016.0
20260906093554 56 0 0.0 0.0 0.00 0.00 0.00 95 1015.8
20260906093107 56 0 0.0 0.0 0.00 0.00 0.00 95 1015.7
20260906092558 56 0 0.0 0.0 0.00 0.00 0.00 95 1015.8
20260906092057 56 0 0.0 0.0 0.00 0.00 0.00 95 1015.7
20260906091610 56 0 0.0 0.0 0.00 0.00 0.00 94 1015.6
20260906091057 56 0 0.0 0.0 0.00 0.00 0.00 94 1015.5
20260906090556 56 0 0.0 0.0 0.00 0.00 0.00 94 1015.3
20260906090100 56 0 0.0 0.0 0.00 0.00 0.00 94 1015.3
20260906085556 56 0 0.0 0.0 0.00 0.00 0.00 94 1015.3
20260906085056 56 0 0.0 0.0 0.00 0.00 0.00 94 1015.4
20260906084606 56 0 0.0 0.0 0.00 0.00 0.00 94 1015.3
20260906084058 56 0 0.0 0.0 0.00 0.00 0.00 94 1015.3
20260906083557 56 0 0.0 0.0 0.00 0.00 0.00 94 1015.2
20260906083104 56 0 0.0 0.0 0.00 0.00 0.00 94 1015.2
20260906082557 56 0 0.0 0.0 0.00 0.00 0.00 94 1015.1
20260906082057 56 0 0.0 0.0 0.00 0.00 0.00 94 1015.1
20260906081602 57 0 0.0 0.0 0.00 0.00 0.00 94 1015.1
20260906081057 57 0 0.0 0.0 0.00 0.00 0.00 94 1015.0
20260906080557 57 0 0.0 0.0 0.00 0.00 0.00 94 1014.9
20260906075556 57 0 0.0 0.0 0.00 0.00 0.00 94 1014.9
20260906075058 58 0 0.0 0.0 0.00 0.00 0.00 94 1015.0
20260906074609 58 0 0.0 0.0 0.00 0.00 0.00 94 1014.9
20260906074101 58 0 0.0 0.0 0.00 0.00 0.00 94 1014.9
20260906073557 58 0 0.0 0.0 0.00 0.00 0.00 94 1014.9
20260906073106 58 0 0.0 0.0 0.00 0.00 0.00 94 1015.0
20260906072557 59 0 0.0 0.0 0.00 0.00 0.00 94 1014.9
20260906072056 59 0 0.0 0.0 0.00 0.00 0.00 94 1014.7
20260906071604 58 0 0.0 0.0 0.00 0.00 0.00 94 1014.8
20260906071059 58 0 0.0 0.0 0.00 0.00 0.00 94 1014.9
20260906070558 59 0 0.0 0.0 0.00 0.00 0.00 94 1014.8
20260906070103 59 0 0.0 0.0 0.00 0.00 0.00 94 1014.9
20260906065557 59 0 0.0 0.0 0.00 0.00 0.00 93 1014.8
20260906065056 59 0 0.0 0.0 0.00 0.00 0.00 93 1014.8
20260906064602 59 0 0.0 0.0 0.00 0.00 0.00 93 1014.8
20260906064058 60 0 0.0 0.0 0.00 0.00 0.00 93 1015.0
20260906063600 60 0 0.0 0.0 0.00 0.00 0.00 94 1014.9
20260906063107 60 0 0.0 0.0 0.00 0.00 0.00 94 1014.9
20260906062556 60 0 0.0 0.0 0.00 0.00 0.00 94 1014.9
20260906062102 60 0 0.0 0.0 0.00 0.00 0.00 94 1014.9
20260906061605 60 0 0.0 0.0 0.00 0.00 0.00 94 1015.0
20260906061054 60 0 0.0 0.0 0.00 0.00 0.00 94 1015.0
20260906060557 61 0 0.0 0.0 0.00 0.00 0.00 94 1015.0
20260906060109 61 0 0.0 0.0 0.00 0.00 0.00 94 1014.9
20260906055558 61 0 0.0 0.0 0.00 0.00 0.00 94 1015.0
20260906055054 61 0 0.0 0.0 0.00 0.00 0.00 94 1015.0
20260906054601 61 0 0.0 0.0 0.00 0.00 0.00 94 1015.0
20260906054055 61 0 0.0 0.0 0.00 0.00 0.00 94 1015.1
20260906053556 61 0 0.0 0.0 0.00 0.00 0.00 94 1015.1
20260906053100 61 0 0.0 0.0 0.00 0.00 0.00 94 1015.0
20260906052557 61 0 0.0 0.0 0.00 0.00 0.00 94 1015.1
20260906052055 61 0 0.0 0.0 0.00 0.00 0.00 94 1015.0
20260906051604 61 0 0.0 0.0 0.00 0.00 0.00 94 1015.0
20260906051100 61 0 0.0 0.0 0.00 0.00 0.00 94 1014.9
20260906050554 61 0 0.0 0.0 0.00 0.00 0.00 94 1015.0
20260906050128 61 0 0.0 0.0 0.00 0.00 0.00 94 1015.0
20260906045553 61 0 0.0 0.0 0.00 0.00 0.00 94 1014.9
20260906045053 61 0 0.0 0.0 0.00 0.00 0.00 94 1014.9
20260906044559 61 0 0.0 0.0 0.00 0.00 0.00 94 1015.0
20260906044058 61 0 0.0 0.0 0.00 0.00 0.00 94 1015.0
20260906043553 61 0 0.0 0.0 0.00 0.00 0.00 93 1015.1
20260906043101 61 0 0.0 0.0 0.00 0.00 0.00 93 1015.1
20260906042554 61 0 0.0 0.0 0.00 0.00 0.00 93 1015.1
20260906042054 61 0 0.0 0.0 0.00 0.00 0.00 93 1015.1
20260906041601 61 0 0.0 0.0 0.00 0.00 0.00 93 1015.1
20260906041054 61 0 0.0 0.0 0.00 0.00 0.00 93 1015.1
20260906040556 61 0 0.0 0.0 0.00 0.00 0.00 93 1015.1
20260906040137 61 0 0.0 0.0 0.00 0.00 0.00 93 1015.1
20260906035554 61 0 0.0 0.0 0.00 0.00 0.00 94 1015.1
20260906035057 61 0 0.0 0.0 0.00 0.00 0.00 93 1015.1
20260906034605 61 0 0.0 0.0 0.00 0.00 0.00 93 1015.0
20260906034052 61 0 0.0 0.0 0.00 0.00 0.00 93 1014.9
20260906033552 60 0 0.0 0.0 0.00 0.00 0.00 93 1014.9
20260906033104 60 0 0.0 0.0 0.00 0.00 0.00 93 1014.9
20260906032555 60 0 0.0 0.0 0.00 0.00 0.00 93 1014.9
20260906032055 60 0 0.0 0.0 0.00 0.00 0.00 93 1014.9
20260906031602 60 0 0.0 0.0 0.00 0.00 0.00 93 1014.9
20260906031112 60 0 0.0 0.0 0.00 0.00 0.00 93 1014.9
20260906030558 59 0 0.0 0.0 0.00 0.00 0.00 93 1014.9
20260906030107 59 0 0.0 0.0 0.00 0.00 0.00 93 1014.9
20260906025556 59 0 0.0 0.0 0.00 0.00 0.00 92 1014.9
20260906025057 59 0 0.0 0.0 0.00 0.00 0.00 92 1014.7
20260906024604 59 0 0.0 0.0 0.00 0.00 0.00 92 1014.8
20260906024057 59 0 0.0 0.0 0.00 0.00 0.00 92 1014.7
20260906023556 59 0 0.0 0.0 0.00 0.00 0.00 91 1014.8
20260906023103 59 0 0.0 0.0 0.00 0.00 0.00 91 1014.8
20260906022600 59 0 0.0 0.0 0.00 0.00 0.00 91 1014.7
20260906022100 59 0 0.0 0.0 0.00 0.00 0.00 91 1014.9
20260906021609 59 0 0.0 0.0 0.00 0.00 0.00 91 1014.8
20260906021058 59 0 0.0 0.0 0.00 0.00 0.00 91 1014.7
20260906020557 59 0 0.0 0.0 0.00 0.00 0.00 91 1014.7
20260906020107 60 0 0.0 0.0 0.00 0.00 0.00 91 1014.6
20260906015557 60 0 0.0 0.0 0.00 0.00 0.00 90 1014.6
20260906015057 60 0 0.0 0.0 0.00 0.00 0.00 90 1014.6
20260906014602 60 0 0.0 0.0 0.00 0.00 0.00 90 1014.6
20260906014101 60 0 0.0 0.0 0.00 0.00 0.00 90 1014.6
20260906013557 60 0 0.0 0.0 0.00 0.00 0.00 90 1014.5
20260906013104 60 0 0.0 0.0 0.00 0.00 0.00 90 1014.5
20260906012557 61 0 0.0 0.0 0.00 0.00 0.00 90 1014.6
20260906012056 61 0 0.0 0.0 0.00 0.00 0.00 89 1014.5
20260906011603 61 0 0.0 0.0 0.00 0.00 0.00 89 1014.5
20260906011101 61 0 0.0 0.0 0.00 0.00 0.00 89 1014.4
20260906010557 61 0 0.0 0.0 0.00 0.00 0.00 89 1014.3
20260906010109 61 0 0.0 0.0 0.00 0.00 0.00 88 1014.4
20260906005556 62 0 0.0 0.0 0.00 0.00 0.00 88 1014.5
20260906005057 62 0 0.0 0.0 0.00 0.00 0.00 88 1014.4
20260906004605 62 0 0.0 0.0 0.00 0.00 0.00 88 1014.3
20260906004057 62 0 0.0 0.0 0.00 0.00 0.00 87 1014.2
20260906003557 63 0 0.0 0.0 0.00 0.00 0.00 87 1014.2
20260906003108 63 0 0.0 0.0 0.00 0.00 0.00 86 1014.3
20260906002556 63 0 0.0 0.0 0.00 0.00 0.00 86 1014.3
20260906002057 64 0 0.0 0.0 0.00 0.00 0.00 85 1014.2
20260906001617 64 0 0.0 0.0 0.00 0.00 0.00 85 1014.3
20260906001057 64 0 0.0 0.0 0.00 0.00 0.00 84 1014.4
20260906000558 65 0 0.0 0.0 0.00 0.00 0.00 84 1014.2
20260906000108 65 0 0.0 0.0 0.00 0.00 0.00 83 1014.3
20260905235557 66 0 0.0 0.0 0.00 0.00 0.00 83 1014.3
20260905235057 66 0 0.0 0.0 0.00 0.00 0.00 82 1014.3
20260905234602 66 0 0.0 0.0 0.00 0.00 0.00 82 1014.3